Year,Month,Day,Hour,Minute,Value (Times are PST for temperature in C)
2021,01,15,00,00,7.30
2021,01,15,00,01,7.30
2021,01,15,00,02,7.30
2021,01,15,00,03,7.30
2021,01,15,00,04,7.30
2021,01,15,00,05,7.30
2021,01,15,00,06,7.30
2021,01,15,00,07,7.30
2021,01,15,00,08,7.30
2021,01,15,00,09,7.30
2021,01,15,00,10,7.40
2021,01,15,00,11,7.40
2021,01,15,00,12,7.40
2021,01,15,00,13,7.40
2021,01,15,00,14,7.40
2021,01,15,00,15,7.40
2021,01,15,00,16,7.50
2021,01,15,00,17,7.50
2021,01,15,00,18,7.50
2021,01,15,00,19,7.50
2021,01,15,00,20,7.60
2021,01,15,00,21,7.60
2021,01,15,00,22,7.60
2021,01,15,00,23,7.60
2021,01,15,00,24,7.60
2021,01,15,00,25,7.60
2021,01,15,00,26,7.60
2021,01,15,00,27,7.60
2021,01,15,00,28,7.60
2021,01,15,00,29,7.60
2021,01,15,00,30,7.60
2021,01,15,00,31,7.60
2021,01,15,00,32,7.60
2021,01,15,00,33,7.70
2021,01,15,00,34,7.70
2021,01,15,00,35,7.70
2021,01,15,00,36,7.70
2021,01,15,00,37,7.70
2021,01,15,00,38,7.80
2021,01,15,00,39,7.80
2021,01,15,00,40,7.80
2021,01,15,00,41,7.80
2021,01,15,00,42,7.80
2021,01,15,00,43,7.90
2021,01,15,00,44,7.90
2021,01,15,00,45,7.90
2021,01,15,00,46,7.90
2021,01,15,00,47,7.90
2021,01,15,00,48,7.90
2021,01,15,00,49,7.90
2021,01,15,00,50,7.80
2021,01,15,00,51,7.80
2021,01,15,00,52,7.80
2021,01,15,00,53,7.70
2021,01,15,00,54,7.70
2021,01,15,00,55,7.70
2021,01,15,00,56,7.70
2021,01,15,00,57,7.70
2021,01,15,00,58,7.70
2021,01,15,00,59,7.70
2021,01,15,01,00,7.70
2021,01,15,01,01,7.70
2021,01,15,01,02,7.70
2021,01,15,01,03,7.70
2021,01,15,01,04,7.70
2021,01,15,01,05,7.80
2021,01,15,01,06,7.80
2021,01,15,01,07,7.80
2021,01,15,01,08,7.80
2021,01,15,01,09,7.80
2021,01,15,01,10,7.80
2021,01,15,01,11,7.80
2021,01,15,01,12,7.80
2021,01,15,01,13,7.80
2021,01,15,01,14,7.80
2021,01,15,01,15,7.80
2021,01,15,01,16,7.80
2021,01,15,01,17,7.80
2021,01,15,01,18,7.80
2021,01,15,01,19,7.80
2021,01,15,01,20,7.80
2021,01,15,01,21,7.80
2021,01,15,01,22,7.80
2021,01,15,01,23,7.80
2021,01,15,01,24,7.80
2021,01,15,01,25,7.80
2021,01,15,01,26,7.90
2021,01,15,01,27,7.90
2021,01,15,01,28,7.90
2021,01,15,01,29,7.90
2021,01,15,01,30,7.90
2021,01,15,01,31,7.90
2021,01,15,01,32,7.90
2021,01,15,01,33,7.90
2021,01,15,01,34,7.90
2021,01,15,01,35,7.90
2021,01,15,01,36,7.90
2021,01,15,01,37,7.90
2021,01,15,01,38,8.00
2021,01,15,01,39,8.00
2021,01,15,01,40,8.00
2021,01,15,01,41,8.00
2021,01,15,01,42,8.00
2021,01,15,01,43,8.00
2021,01,15,01,44,8.00
2021,01,15,01,45,8.00
2021,01,15,01,46,8.00
2021,01,15,01,47,8.00
2021,01,15,01,48,8.00
2021,01,15,01,49,8.00
2021,01,15,01,50,8.00
2021,01,15,01,51,8.00
2021,01,15,01,52,8.00
2021,01,15,01,53,8.00
2021,01,15,01,54,8.00
2021,01,15,01,55,8.00
2021,01,15,01,56,8.00
2021,01,15,01,57,8.00
2021,01,15,01,58,8.00
2021,01,15,01,59,8.00
2021,01,15,02,00,8.00
2021,01,15,02,01,8.10
2021,01,15,02,02,8.10
2021,01,15,02,03,8.10
2021,01,15,02,04,8.10
2021,01,15,02,05,8.10
2021,01,15,02,06,8.10
2021,01,15,02,07,8.10
2021,01,15,02,08,8.10
2021,01,15,02,09,8.10
2021,01,15,02,10,8.10
2021,01,15,02,11,8.10
2021,01,15,02,12,8.10
2021,01,15,02,13,8.10
2021,01,15,02,14,8.10
2021,01,15,02,15,8.10
2021,01,15,02,16,8.10
2021,01,15,02,17,8.10
2021,01,15,02,18,8.10
2021,01,15,02,19,8.10
2021,01,15,02,20,8.10
2021,01,15,02,21,8.10
2021,01,15,02,22,8.10
2021,01,15,02,23,8.10
2021,01,15,02,24,8.10
2021,01,15,02,25,8.10
2021,01,15,02,26,8.10
2021,01,15,02,27,8.10
2021,01,15,02,28,8.10
2021,01,15,02,29,8.10
2021,01,15,02,30,8.10
2021,01,15,02,31,8.00
2021,01,15,02,32,8.00
2021,01,15,02,33,8.00
2021,01,15,02,34,8.00
2021,01,15,02,35,8.00
2021,01,15,02,36,8.00
2021,01,15,02,37,8.00
2021,01,15,02,38,8.00
2021,01,15,02,39,8.00
2021,01,15,02,40,8.00
2021,01,15,02,41,8.00
2021,01,15,02,42,8.00
2021,01,15,02,43,8.00
2021,01,15,02,44,8.00
2021,01,15,02,45,8.00
2021,01,15,02,46,8.00
2021,01,15,02,47,8.00
2021,01,15,02,48,8.00
2021,01,15,02,49,8.00
2021,01,15,02,50,8.00
2021,01,15,02,51,7.90
2021,01,15,02,52,7.90
2021,01,15,02,53,7.90
2021,01,15,02,54,7.90
2021,01,15,02,55,7.90
2021,01,15,02,56,7.90
2021,01,15,02,57,7.90
2021,01,15,02,58,7.80
2021,01,15,02,59,7.80
2021,01,15,03,00,7.80
2021,01,15,03,01,7.80
2021,01,15,03,02,7.80
2021,01,15,03,03,7.70
2021,01,15,03,04,7.70
2021,01,15,03,05,7.70
2021,01,15,03,06,7.70
2021,01,15,03,07,7.60
2021,01,15,03,08,7.60
2021,01,15,03,09,7.60
2021,01,15,03,10,7.60
2021,01,15,03,11,7.60
2021,01,15,03,12,7.50
2021,01,15,03,13,7.50
2021,01,15,03,14,7.50
2021,01,15,03,15,7.50
2021,01,15,03,16,7.50
2021,01,15,03,17,7.40
2021,01,15,03,18,7.40
2021,01,15,03,19,7.40
2021,01,15,03,20,7.40
2021,01,15,03,21,7.40
2021,01,15,03,22,7.40
2021,01,15,03,23,7.40
2021,01,15,03,24,7.40
2021,01,15,03,25,7.40
2021,01,15,03,26,7.40
2021,01,15,03,27,7.30
2021,01,15,03,28,7.30
2021,01,15,03,29,7.30
2021,01,15,03,30,7.30
2021,01,15,03,31,7.30
2021,01,15,03,32,7.30
2021,01,15,03,33,7.30
2021,01,15,03,34,7.30
2021,01,15,03,35,7.30
2021,01,15,03,36,7.30
2021,01,15,03,37,7.30
2021,01,15,03,38,7.30
2021,01,15,03,39,7.30
2021,01,15,03,40,7.30
2021,01,15,03,41,7.20
2021,01,15,03,42,7.20
2021,01,15,03,43,7.20
2021,01,15,03,44,7.20
2021,01,15,03,45,7.10
2021,01,15,03,46,7.10
2021,01,15,03,47,7.10
2021,01,15,03,48,7.10
2021,01,15,03,49,7.00
2021,01,15,03,50,7.00
2021,01,15,03,51,6.90
2021,01,15,03,52,6.90
2021,01,15,03,53,6.90
2021,01,15,03,54,6.90
2021,01,15,03,55,6.90
2021,01,15,03,56,6.90
2021,01,15,03,57,6.90
2021,01,15,03,58,6.90
2021,01,15,03,59,6.90
2021,01,15,04,00,6.90
2021,01,15,04,01,6.90
2021,01,15,04,02,6.80
2021,01,15,04,03,6.80
2021,01,15,04,04,6.80
2021,01,15,04,05,6.80
2021,01,15,04,06,6.80
2021,01,15,04,07,6.80
2021,01,15,04,08,6.80
2021,01,15,04,09,6.80
2021,01,15,04,10,6.80
2021,01,15,04,11,6.80
2021,01,15,04,12,6.80
2021,01,15,04,13,6.80
2021,01,15,04,14,6.80
2021,01,15,04,15,6.70
2021,01,15,04,16,6.70
2021,01,15,04,17,6.70
2021,01,15,04,18,6.70
2021,01,15,04,19,6.70
2021,01,15,04,20,6.70
2021,01,15,04,21,6.70
2021,01,15,04,22,6.60
2021,01,15,04,23,6.60
2021,01,15,04,24,6.60
2021,01,15,04,25,6.60
2021,01,15,04,26,6.60
2021,01,15,04,27,6.60
2021,01,15,04,28,6.60
2021,01,15,04,29,6.50
2021,01,15,04,30,6.50
2021,01,15,04,31,6.50
2021,01,15,04,32,6.50
2021,01,15,04,33,6.50
2021,01,15,04,34,6.40
2021,01,15,04,35,6.40
2021,01,15,04,36,6.40
2021,01,15,04,37,6.40
2021,01,15,04,38,6.40
2021,01,15,04,39,6.30
2021,01,15,04,40,6.30
2021,01,15,04,41,6.30
2021,01,15,04,42,6.20
2021,01,15,04,43,6.20
2021,01,15,04,44,6.20
2021,01,15,04,45,6.20
2021,01,15,04,46,6.20
2021,01,15,04,47,6.20
2021,01,15,04,48,6.10
2021,01,15,04,49,6.10
2021,01,15,04,50,6.00
2021,01,15,04,51,6.00
2021,01,15,04,52,5.90
2021,01,15,04,53,5.90
2021,01,15,04,54,5.90
2021,01,15,04,55,5.90
2021,01,15,04,56,5.90
2021,01,15,04,57,5.90
2021,01,15,04,58,6.00
2021,01,15,04,59,6.00
2021,01,15,05,00,6.00
2021,01,15,05,01,6.10
2021,01,15,05,02,6.10
2021,01,15,05,03,6.10
2021,01,15,05,04,6.20
2021,01,15,05,05,6.20
2021,01,15,05,06,6.20
2021,01,15,05,07,6.20
2021,01,15,05,08,6.30
2021,01,15,05,09,6.20
2021,01,15,05,10,6.20
2021,01,15,05,11,6.20
2021,01,15,05,12,6.20
2021,01,15,05,13,6.20
2021,01,15,05,14,6.20
2021,01,15,05,15,6.20
2021,01,15,05,16,6.20
2021,01,15,05,17,6.20
2021,01,15,05,18,6.20
2021,01,15,05,19,6.10
2021,01,15,05,20,6.10
2021,01,15,05,21,6.00
2021,01,15,05,22,6.00
2021,01,15,05,23,5.90
2021,01,15,05,24,5.90
2021,01,15,05,25,5.90
2021,01,15,05,26,5.90
2021,01,15,05,27,5.80
2021,01,15,05,28,5.80
2021,01,15,05,29,5.80
2021,01,15,05,30,5.80
2021,01,15,05,31,5.80
2021,01,15,05,32,5.80
2021,01,15,05,33,5.80
2021,01,15,05,34,5.80
2021,01,15,05,35,5.80
2021,01,15,05,36,5.80
2021,01,15,05,37,5.80
2021,01,15,05,38,5.80
2021,01,15,05,39,5.80
2021,01,15,05,40,5.80
2021,01,15,05,41,5.80
2021,01,15,05,42,5.80
2021,01,15,05,43,5.70
2021,01,15,05,44,5.70
2021,01,15,05,45,5.70
2021,01,15,05,46,5.70
2021,01,15,05,47,5.70
2021,01,15,05,48,5.70
2021,01,15,05,49,5.70
2021,01,15,05,50,5.60
2021,01,15,05,51,5.60
2021,01,15,05,52,5.60
2021,01,15,05,53,5.50
2021,01,15,05,54,5.50
2021,01,15,05,55,5.50
2021,01,15,05,56,5.40
2021,01,15,05,57,5.40
2021,01,15,05,58,5.40
2021,01,15,05,59,5.40
2021,01,15,06,00,5.40
2021,01,15,06,01,5.30
2021,01,15,06,02,5.30
2021,01,15,06,03,5.20
2021,01,15,06,04,5.20
2021,01,15,06,05,5.20
2021,01,15,06,06,5.20
2021,01,15,06,07,5.20
2021,01,15,06,08,5.20
2021,01,15,06,09,5.20
2021,01,15,06,10,5.20
2021,01,15,06,11,5.20
2021,01,15,06,12,5.20
2021,01,15,06,13,5.20
2021,01,15,08,28,6.00
2021,01,15,08,29,6.00
2021,01,15,08,30,6.00
2021,01,15,08,31,6.00
2021,01,15,08,32,6.00
2021,01,15,08,33,6.10
2021,01,15,08,34,6.10
2021,01,15,08,35,6.10
2021,01,15,08,36,6.10
2021,01,15,08,37,6.20
2021,01,15,08,38,6.20
2021,01,15,08,39,6.20
2021,01,15,08,40,6.20
2021,01,15,08,41,6.20
2021,01,15,08,42,6.30
2021,01,15,08,43,6.30
2021,01,15,08,44,6.40
2021,01,15,08,45,6.40
2021,01,15,08,46,6.40
2021,01,15,08,47,6.50
2021,01,15,08,48,6.50
2021,01,15,08,49,6.50
2021,01,15,08,50,6.60
2021,01,15,08,51,6.60
2021,01,15,08,52,6.60
2021,01,15,08,53,6.70
2021,01,15,08,54,6.70
2021,01,15,08,55,6.70
2021,01,15,08,56,6.70
2021,01,15,08,57,6.70
2021,01,15,08,58,6.70
2021,01,15,08,59,6.70
2021,01,15,09,00,6.70
2021,01,15,09,01,6.80
2021,01,15,09,02,6.80
2021,01,15,09,03,6.80
2021,01,15,09,04,6.90
2021,01,15,09,05,6.90
2021,01,15,09,06,6.90
2021,01,15,09,07,7.00
2021,01,15,09,08,7.10
2021,01,15,09,09,7.10
2021,01,15,09,10,7.10
2021,01,15,09,11,7.20
2021,01,15,09,12,7.20
2021,01,15,09,13,7.20
2021,01,15,09,14,7.20
2021,01,15,09,15,7.30
2021,01,15,09,16,7.30
2021,01,15,09,17,7.30
2021,01,15,09,18,7.30
2021,01,15,09,19,7.40
2021,01,15,09,20,7.40
2021,01,15,09,21,7.50
2021,01,15,09,22,7.50
2021,01,15,09,23,7.50
2021,01,15,09,24,7.60
2021,01,15,09,25,7.60
2021,01,15,09,26,7.60
2021,01,15,09,27,7.60
2021,01,15,09,28,7.60
2021,01,15,09,29,7.70
2021,01,15,09,30,7.70
2021,01,15,09,31,7.70
2021,01,15,09,32,7.70
2021,01,15,09,33,7.80
2021,01,15,09,34,7.80
2021,01,15,09,35,7.80
2021,01,15,09,36,7.80
2021,01,15,09,37,7.90
2021,01,15,09,38,7.90
2021,01,15,09,39,8.00
2021,01,15,09,40,8.00
2021,01,15,09,41,8.10
2021,01,15,09,42,8.10
2021,01,15,09,43,8.20
2021,01,15,09,44,8.20
2021,01,15,09,45,8.20
2021,01,15,09,46,8.30
2021,01,15,09,47,8.30
2021,01,15,09,48,8.40
2021,01,15,09,49,8.40
2021,01,15,09,50,8.50
2021,01,15,09,51,8.50
2021,01,15,09,52,8.60
2021,01,15,09,53,8.60
2021,01,15,09,54,8.70
2021,01,15,09,55,8.70
2021,01,15,09,56,8.70
2021,01,15,09,57,8.80
2021,01,15,09,58,8.80
2021,01,15,09,59,8.80
2021,01,15,10,00,8.90
2021,01,15,10,01,8.90
2021,01,15,10,02,9.00
2021,01,15,10,03,9.10
2021,01,15,10,04,9.10
2021,01,15,10,05,9.20
2021,01,15,10,06,9.30
2021,01,15,10,07,9.30
2021,01,15,10,08,9.40
2021,01,15,10,09,9.40
2021,01,15,10,10,9.50
2021,01,15,10,11,9.60
2021,01,15,10,12,9.60
2021,01,15,10,13,9.70
2021,01,15,10,14,9.70
2021,01,15,10,15,9.80
2021,01,15,10,16,9.90
2021,01,15,10,17,9.90
2021,01,15,10,18,9.90
2021,01,15,10,19,10.00
2021,01,15,10,20,10.00
2021,01,15,10,21,10.00
2021,01,15,10,22,10.10
2021,01,15,10,23,10.10
2021,01,15,10,24,10.20
2021,01,15,10,25,10.20
2021,01,15,10,26,10.20
2021,01,15,10,27,10.30
2021,01,15,10,28,10.30
2021,01,15,10,29,10.30
2021,01,15,10,30,10.30
2021,01,15,10,31,10.40
2021,01,15,10,32,10.40
2021,01,15,10,33,10.40
2021,01,15,10,34,10.50
2021,01,15,10,35,10.50
2021,01,15,10,36,10.60
2021,01,15,10,37,10.60
2021,01,15,10,38,10.60
2021,01,15,10,39,10.70
2021,01,15,10,40,10.70
2021,01,15,10,41,10.80
2021,01,15,10,42,10.80
2021,01,15,10,43,10.90
2021,01,15,10,44,10.90
2021,01,15,10,45,10.90
2021,01,15,10,46,11.00
2021,01,15,10,47,11.00
2021,01,15,10,48,11.00
2021,01,15,10,49,11.10
2021,01,15,10,50,11.20
2021,01,15,10,51,11.20
2021,01,15,10,52,11.20
2021,01,15,10,53,11.20
2021,01,15,10,54,11.30
2021,01,15,10,55,11.30
2021,01,15,10,56,11.30
2021,01,15,10,57,11.40
2021,01,15,10,58,11.40
2021,01,15,10,59,11.50
2021,01,15,11,00,11.50
2021,01,15,11,01,11.50
2021,01,15,11,02,11.60
2021,01,15,11,03,11.60
2021,01,15,11,04,11.70
2021,01,15,11,05,11.80
2021,01,15,11,06,11.80
2021,01,15,11,07,11.80
2021,01,15,11,08,11.80
2021,01,15,11,09,11.90
2021,01,15,11,10,11.90
2021,01,15,11,11,11.90
2021,01,15,11,12,11.90
2021,01,15,11,13,11.90
2021,01,15,11,14,11.90
2021,01,15,11,15,11.90
2021,01,15,11,16,11.90
2021,01,15,11,17,11.90
2021,01,15,11,18,11.90
2021,01,15,11,19,12.00
2021,01,15,11,20,12.00
2021,01,15,11,21,12.00
2021,01,15,11,22,12.00
2021,01,15,11,23,12.10
2021,01,15,11,24,12.10
2021,01,15,11,25,12.20
2021,01,15,11,26,12.20
2021,01,15,11,27,12.20
2021,01,15,11,28,12.30
2021,01,15,11,29,12.30
2021,01,15,11,30,12.40
2021,01,15,11,31,12.40
2021,01,15,11,32,12.40
2021,01,15,11,33,12.40
2021,01,15,11,34,12.40
2021,01,15,11,35,12.40
2021,01,15,11,36,12.40
2021,01,15,11,37,12.40
2021,01,15,11,38,12.40
2021,01,15,11,39,12.40
2021,01,15,11,40,12.40
2021,01,15,11,41,12.50
2021,01,15,11,42,12.50
2021,01,15,11,43,12.50
2021,01,15,11,44,12.50
2021,01,15,11,45,12.50
2021,01,15,11,46,12.50
2021,01,15,11,47,12.40
2021,01,15,11,48,12.40
2021,01,15,11,49,12.50
2021,01,15,11,50,12.50
2021,01,15,11,51,12.50
2021,01,15,11,52,12.50
2021,01,15,11,53,12.50
2021,01,15,11,54,12.60
2021,01,15,11,55,12.60
2021,01,15,11,56,12.60
2021,01,15,11,57,12.70
2021,01,15,11,58,12.70
2021,01,15,11,59,12.80
2021,01,15,12,00,12.90
2021,01,15,12,01,13.00
2021,01,15,12,02,13.00
2021,01,15,12,03,13.10
2021,01,15,12,04,13.10
2021,01,15,12,05,13.20
2021,01,15,12,06,13.30
2021,01,15,12,07,13.40
2021,01,15,12,08,13.40
2021,01,15,12,09,13.50
2021,01,15,12,10,13.50
2021,01,15,12,11,13.60
2021,01,15,12,12,13.60
2021,01,15,12,13,13.60
2021,01,15,12,14,13.60
2021,01,15,12,15,13.50
2021,01,15,12,16,13.50
2021,01,15,12,17,13.50
2021,01,15,12,18,13.50
2021,01,15,12,19,13.60
2021,01,15,12,20,13.60
2021,01,15,12,21,13.60
2021,01,15,12,22,13.60
2021,01,15,12,23,13.60
2021,01,15,12,24,13.60
2021,01,15,12,25,13.60
2021,01,15,12,26,13.60
2021,01,15,12,27,13.60
2021,01,15,12,28,13.60
2021,01,15,12,29,13.70
2021,01,15,12,30,13.70
2021,01,15,12,31,13.70
2021,01,15,12,32,13.70
2021,01,15,12,33,13.70
2021,01,15,12,34,13.70
2021,01,15,12,35,13.70
2021,01,15,12,36,13.70
2021,01,15,12,37,13.60
2021,01,15,12,38,13.60
2021,01,15,12,39,13.60
2021,01,15,12,40,13.60
2021,01,15,12,41,13.60
2021,01,15,12,42,13.60
2021,01,15,12,43,13.60
2021,01,15,12,44,13.70
2021,01,15,12,45,13.70
2021,01,15,12,46,13.70
2021,01,15,12,47,13.70
2021,01,15,12,48,13.80
2021,01,15,12,49,13.80
2021,01,15,12,50,13.80
2021,01,15,12,51,13.80
2021,01,15,12,52,13.90
2021,01,15,12,53,13.90
2021,01,15,12,54,13.90
2021,01,15,12,55,13.90
2021,01,15,12,56,14.00
2021,01,15,12,57,14.10
2021,01,15,12,58,14.10
2021,01,15,12,59,14.10
2021,01,15,13,00,14.10
2021,01,15,13,01,14.10
2021,01,15,13,02,14.20
2021,01,15,13,03,14.20
2021,01,15,13,04,14.20
2021,01,15,13,05,14.20
2021,01,15,13,06,14.20
2021,01,15,13,07,14.20
2021,01,15,13,08,14.30
2021,01,15,13,09,14.30
2021,01,15,13,10,14.40
2021,01,15,13,11,14.40
2021,01,15,13,12,14.50
2021,01,15,13,13,14.50
2021,01,15,13,14,14.60
2021,01,15,13,15,14.60
2021,01,15,13,16,14.70
2021,01,15,13,17,14.70
2021,01,15,13,18,14.60
2021,01,15,13,19,14.50
2021,01,15,13,20,14.40
2021,01,15,13,21,14.30
2021,01,15,13,22,14.20
2021,01,15,13,23,14.10
2021,01,15,13,24,14.00
2021,01,15,13,25,13.80
2021,01,15,13,26,13.70
2021,01,15,13,27,13.60
2021,01,15,13,28,13.50
2021,01,15,13,29,13.40
2021,01,15,13,30,13.40
2021,01,15,13,31,13.40
2021,01,15,13,32,13.40
2021,01,15,13,33,13.40
2021,01,15,13,34,13.30
2021,01,15,13,35,13.30
2021,01,15,13,36,13.30
2021,01,15,13,37,13.30
2021,01,15,13,38,13.30
2021,01,15,13,39,13.20
2021,01,15,13,40,13.20
2021,01,15,13,41,13.10
2021,01,15,13,42,13.00
2021,01,15,13,43,13.00
2021,01,15,13,44,12.90
2021,01,15,13,45,12.90
2021,01,15,13,46,12.90
2021,01,15,13,47,12.80
2021,01,15,13,48,12.80
2021,01,15,13,49,12.80
2021,01,15,13,50,12.70
2021,01,15,13,51,12.70
2021,01,15,13,52,12.60
2021,01,15,13,53,12.60
2021,01,15,13,54,12.50
2021,01,15,13,55,12.50
2021,01,15,13,56,12.40
2021,01,15,13,57,12.40
2021,01,15,13,58,12.40
2021,01,15,13,59,12.40
2021,01,15,14,00,12.40
2021,01,15,14,01,12.40
2021,01,15,14,02,12.40
2021,01,15,14,03,12.40
2021,01,15,14,04,12.40
2021,01,15,14,05,12.30
2021,01,15,14,06,12.30
2021,01,15,14,07,12.30
2021,01,15,14,08,12.30
2021,01,15,14,09,12.30
2021,01,15,14,10,12.30
2021,01,15,14,11,12.30
2021,01,15,14,12,12.30
2021,01,15,14,13,12.30
2021,01,15,14,14,12.30
2021,01,15,14,15,12.30
2021,01,15,14,16,12.40
2021,01,15,14,17,12.40
2021,01,15,14,18,12.40
2021,01,15,14,19,12.50
2021,01,15,14,20,12.50
2021,01,15,14,21,12.50
2021,01,15,14,22,12.40
2021,01,15,14,23,12.40
2021,01,15,14,24,12.40
2021,01,15,14,25,12.40
2021,01,15,14,26,12.40
2021,01,15,14,27,12.40
2021,01,15,14,28,12.40
2021,01,15,14,29,12.40
2021,01,15,14,30,12.40
2021,01,15,14,31,12.40
2021,01,15,14,32,12.40
2021,01,15,14,33,12.40
2021,01,15,14,34,12.40
2021,01,15,14,35,12.40
2021,01,15,14,36,12.40
2021,01,15,14,37,12.30
2021,01,15,14,38,12.30
2021,01,15,14,39,12.30
2021,01,15,14,40,12.30
2021,01,15,14,41,12.30
2021,01,15,14,42,12.30
2021,01,15,14,43,12.30
2021,01,15,14,44,12.20
2021,01,15,14,45,12.20
2021,01,15,14,46,12.20
2021,01,15,14,47,12.10
2021,01,15,14,48,12.10
2021,01,15,14,49,12.10
2021,01,15,14,50,12.00
2021,01,15,14,51,12.00
2021,01,15,14,52,11.90
2021,01,15,14,53,11.90
2021,01,15,14,54,11.90
2021,01,15,14,55,11.90
2021,01,15,14,56,11.80
2021,01,15,14,57,11.80
2021,01,15,14,58,11.80
2021,01,15,14,59,11.80
2021,01,15,15,00,11.80
2021,01,15,15,01,11.80
2021,01,15,15,02,11.80
2021,01,15,15,03,11.80
2021,01,15,15,04,11.80
2021,01,15,15,05,11.80
2021,01,15,15,06,11.80
2021,01,15,15,07,11.80
2021,01,15,15,08,11.80
2021,01,15,15,09,11.80
2021,01,15,15,10,11.80
2021,01,15,15,11,11.80
2021,01,15,15,12,11.80
2021,01,15,15,13,11.70
2021,01,15,15,14,11.70
2021,01,15,15,15,11.70
2021,01,15,15,16,11.70
2021,01,15,15,17,11.70
2021,01,15,15,18,11.70
2021,01,15,15,19,11.70
2021,01,15,15,20,11.70
2021,01,15,15,21,11.70
2021,01,15,15,22,11.70
2021,01,15,15,23,11.70
2021,01,15,15,24,11.70
2021,01,15,15,25,11.70
2021,01,15,15,26,11.70
2021,01,15,15,27,11.70
2021,01,15,15,28,11.70
2021,01,15,15,29,11.70
2021,01,15,15,30,11.70
2021,01,15,15,31,11.70
2021,01,15,15,32,11.70
2021,01,15,15,33,11.70
2021,01,15,15,34,11.70
2021,01,15,15,35,11.70
2021,01,15,15,36,11.60
2021,01,15,15,37,11.60
2021,01,15,15,38,11.60
2021,01,15,15,39,11.50
2021,01,15,15,40,11.50
2021,01,15,15,41,11.50
2021,01,15,15,42,11.50
2021,01,15,15,43,11.50
2021,01,15,15,44,11.40
2021,01,15,15,45,11.40
2021,01,15,15,46,11.40
2021,01,15,15,47,11.40
2021,01,15,15,48,11.30
2021,01,15,15,49,11.30
2021,01,15,15,50,11.30
2021,01,15,15,51,11.20
2021,01,15,15,52,11.20
2021,01,15,15,53,11.20
2021,01,15,15,54,11.10
2021,01,15,15,55,11.10
2021,01,15,15,56,11.10
2021,01,15,15,57,11.10
2021,01,15,15,58,11.10
2021,01,15,15,59,11.10
2021,01,15,16,00,11.00
2021,01,15,16,01,11.00
2021,01,15,16,02,11.00
2021,01,15,16,03,11.00
2021,01,15,16,04,11.00
2021,01,15,16,05,11.00
2021,01,15,16,06,11.00
2021,01,15,16,07,11.00
2021,01,15,16,08,11.00
2021,01,15,16,09,11.00
2021,01,15,16,10,11.00
2021,01,15,16,11,11.10
2021,01,15,16,12,11.10
2021,01,15,16,13,11.10
2021,01,15,16,14,11.10
2021,01,15,16,15,11.10
2021,01,15,16,16,11.10
2021,01,15,16,17,11.10
2021,01,15,16,18,11.10
2021,01,15,16,19,11.10
2021,01,15,16,20,11.10
2021,01,15,16,21,11.10
2021,01,15,16,22,11.10
2021,01,15,16,23,11.10
2021,01,15,16,24,11.00
2021,01,15,16,25,11.00
2021,01,15,16,26,11.00
2021,01,15,16,27,11.00
2021,01,15,16,28,11.00
2021,01,15,16,29,11.00
2021,01,15,16,30,10.90
2021,01,15,16,31,10.90
2021,01,15,16,32,10.90
2021,01,15,16,33,10.90
2021,01,15,16,34,10.90
2021,01,15,16,35,10.80
2021,01,15,16,36,10.80
2021,01,15,16,37,10.80
2021,01,15,16,38,10.80
2021,01,15,16,39,10.80
2021,01,15,16,40,10.70
2021,01,15,16,41,10.70
2021,01,15,16,42,10.70
2021,01,15,16,43,10.70
2021,01,15,16,44,10.60
2021,01,15,16,45,10.60
2021,01,15,16,46,10.60
2021,01,15,16,47,10.60
2021,01,15,16,48,10.60
2021,01,15,16,49,10.50
2021,01,15,16,50,10.50
2021,01,15,16,51,10.50
2021,01,15,16,52,10.40
2021,01,15,16,53,10.40
2021,01,15,16,54,10.40
2021,01,15,16,55,10.40
2021,01,15,16,56,10.30
2021,01,15,16,57,10.30
2021,01,15,16,58,10.30
2021,01,15,16,59,10.30
2021,01,15,17,00,10.30
2021,01,15,17,01,10.30
2021,01,15,17,02,10.20
2021,01,15,17,03,10.20
2021,01,15,17,04,10.20
2021,01,15,17,05,10.20
2021,01,15,17,06,10.20
2021,01,15,17,07,10.10
2021,01,15,17,08,10.10
2021,01,15,17,09,10.10
2021,01,15,17,10,10.10
2021,01,15,17,11,10.10
2021,01,15,17,12,10.00
2021,01,15,17,13,10.00
2021,01,15,17,14,10.00
2021,01,15,17,15,9.90
2021,01,15,17,16,9.90
2021,01,15,17,17,9.90
2021,01,15,17,18,9.90
2021,01,15,17,19,9.80
2021,01,15,17,20,9.80
2021,01,15,17,21,9.80
2021,01,15,17,22,9.70
2021,01,15,17,23,9.70
2021,01,15,17,24,9.70
2021,01,15,17,25,9.60
2021,01,15,17,26,9.60
2021,01,15,17,27,9.60
2021,01,15,17,28,9.60
2021,01,15,17,29,9.60
2021,01,15,17,30,9.50
2021,01,15,17,31,9.50
2021,01,15,17,32,9.50
2021,01,15,17,33,9.40
2021,01,15,17,34,9.40
2021,01,15,17,35,9.40
2021,01,15,17,36,9.30
2021,01,15,17,37,9.30
2021,01,15,17,38,9.30
2021,01,15,17,39,9.20
2021,01,15,17,40,9.20
2021,01,15,17,41,9.10
2021,01,15,17,42,9.10
2021,01,15,17,43,9.00
2021,01,15,17,44,8.90
2021,01,15,17,45,8.90
2021,01,15,17,46,8.80
2021,01,15,17,47,8.80
2021,01,15,17,48,8.80
2021,01,15,17,49,8.80
2021,01,15,17,50,8.80
2021,01,15,17,51,8.80
2021,01,15,17,52,8.80
2021,01,15,17,53,8.70
2021,01,15,17,54,8.70
2021,01,15,17,55,8.70
2021,01,15,17,56,8.60
2021,01,15,17,57,8.60
2021,01,15,17,58,8.50
2021,01,15,17,59,8.40
2021,01,15,18,00,8.40
2021,01,15,18,01,8.30
2021,01,15,18,02,8.30
2021,01,15,18,03,8.20
2021,01,15,18,04,8.20
2021,01,15,18,05,8.20
2021,01,15,18,06,8.10
2021,01,15,18,07,8.10
2021,01,15,18,08,8.00
2021,01,15,18,09,8.00
2021,01,15,18,10,7.90
2021,01,15,18,11,7.90
2021,01,15,18,12,7.80
2021,01,15,18,13,7.80
2021,01,15,18,14,7.70
2021,01,15,18,15,7.60
2021,01,15,18,16,7.60
2021,01,15,18,17,7.50
2021,01,15,18,18,7.50
2021,01,15,18,19,7.50
2021,01,15,18,20,7.40
2021,01,15,18,21,7.40
2021,01,15,18,22,7.30
2021,01,15,18,23,7.30
2021,01,15,18,24,7.20
2021,01,15,18,25,7.20
2021,01,15,18,26,7.20
2021,01,15,18,27,7.10
2021,01,15,18,28,7.10
2021,01,15,18,29,7.10
2021,01,15,18,30,7.10
2021,01,15,18,31,7.00
2021,01,15,18,32,7.00
2021,01,15,18,33,7.00
2021,01,15,18,34,7.00
2021,01,15,18,35,6.90
2021,01,15,18,36,6.90
2021,01,15,18,37,6.90
2021,01,15,18,38,6.90
2021,01,15,18,39,6.80
2021,01,15,18,40,6.80
2021,01,15,18,41,6.80
2021,01,15,18,42,6.80
2021,01,15,18,43,6.80
2021,01,15,18,44,6.70
2021,01,15,18,45,6.70
2021,01,15,18,46,6.70
2021,01,15,18,47,6.70
2021,01,15,18,48,6.60
2021,01,15,18,49,6.60
2021,01,15,18,50,6.60
2021,01,15,18,51,6.60
2021,01,15,18,52,6.60
2021,01,15,18,53,6.60
2021,01,15,18,54,6.50
2021,01,15,18,55,6.50
2021,01,15,18,56,6.50
2021,01,15,18,57,6.50
2021,01,15,18,58,6.50
2021,01,15,18,59,6.50
2021,01,15,19,00,6.40
2021,01,15,19,01,6.40
2021,01,15,19,02,6.40
2021,01,15,19,03,6.40
2021,01,15,19,04,6.40
2021,01,15,19,05,6.30
2021,01,15,19,06,6.30
2021,01,15,19,07,6.30
2021,01,15,19,08,6.30
2021,01,15,19,09,6.30
2021,01,15,19,10,6.30
2021,01,15,19,11,6.20
2021,01,15,19,12,6.20
2021,01,15,19,13,6.20
2021,01,15,19,14,6.20
2021,01,15,19,15,6.20
2021,01,15,19,16,6.20
2021,01,15,19,17,6.20
2021,01,15,19,18,6.10
2021,01,15,19,19,6.10
2021,01,15,19,20,6.10
2021,01,15,19,21,6.10
2021,01,15,19,22,6.10
2021,01,15,19,23,6.00
2021,01,15,19,24,6.00
2021,01,15,19,25,6.00
2021,01,15,19,26,5.90
2021,01,15,19,27,5.90
2021,01,15,19,28,5.90
2021,01,15,19,29,5.90
2021,01,15,19,30,5.80
2021,01,15,19,31,5.80
2021,01,15,19,32,5.80
2021,01,15,19,33,5.80
2021,01,15,19,34,5.70
2021,01,15,19,35,5.70
2021,01,15,19,36,5.70
2021,01,15,19,37,5.60
2021,01,15,19,38,5.50
2021,01,15,19,39,5.50
2021,01,15,19,40,5.40
2021,01,15,19,41,5.40
2021,01,15,19,42,5.30
2021,01,15,19,43,5.30
2021,01,15,19,44,5.30
2021,01,15,19,45,5.30
2021,01,15,19,46,5.30
2021,01,15,19,47,5.30
2021,01,15,19,48,5.30
2021,01,15,19,49,5.30
2021,01,15,19,50,5.30
2021,01,15,19,51,5.20
2021,01,15,19,52,5.20
2021,01,15,19,53,5.20
2021,01,15,19,54,5.20
2021,01,15,19,55,5.20
2021,01,15,19,56,5.10
2021,01,15,19,57,5.10
2021,01,15,19,58,5.10
2021,01,15,19,59,5.10
2021,01,15,20,00,5.00
2021,01,15,20,01,5.00